Fort Knox, KY

7:58 PM EST on December 08, 2016 (GMT -0500)
Godman Army Air Field

Weather History for KFTK - May, 2014

Change the Weather History Date:

Sunday, May 25, 2014

  Actual Average Record
Temperature  
Mean Temperature 66 °F -  
Max Temperature 74 °F 74 °F 89 °F (2012)
Min Temperature 57 °F 55 °F 42 °F (2013)
Growing Degree Days 16 (Base 50)    
Moisture  
Dew Point 57 °F    
Average Humidity 70    
Maximum Humidity 100    
Minimum Humidity 55    
Precipitation  
Precipitation 0.00 in - - ()
Sea Level Pressure  
Sea Level Pressure 30.12 in    
Wind  
Wind Speed 3 mph (ENE)    
Max Wind Speed 7 mph    
Max Gust Speed -    
Visibility 10 miles    
Events Rain    
Averages and records for this station are not official NWS values.
T = Trace of Precipitation, MM = Missing Value Source: NWS Daily Summary

Daily Weather History Graph

Daily Weather History Graph

Search for Another Location

Airport or City:

Trip Planner

Search our weather history database for the weather conditions in past years. The results will help you decide how hot, cold, wet, or windy it might be!

Date:

Astronomy

May. 25, 2014 Rise Set
Actual Time 6:26 AM EDT 8:55 PM EDT
Civil Twilight 5:56 AM EDT 9:25 PM EDT
Nautical Twilight 5:18 AM EDT 10:03 PM EDT
Astronomical Twilight 4:37 AM EDT 10:45 PM EDT
Moon 4:27 AM EDT (5/25) 5:58 PM EDT (5/25)
Length of Visible Light 15h 29m
Length of Day
14h 28m
Waning Crescent, 10% of the Moon is Illuminated
May 25
Waning Crescent
May 28
New
Jun 5
First Quarter
Jun 13
Full
Jun 19
Last Quarter

Hourly Weather History & Observations

Time (EDT) Temp. Dew Point Humidity Pressure Visibility Wind Dir Wind Speed Gust Speed Precip Events Conditions
12:58 AM 62.4 °F 52.2 °F 69% 30.13 in 10.0 mi East 2.3 mph - N/A   Clear
1:58 AM 59.0 °F 52.9 °F 80% 30.12 in 10.0 mi ENE 4.6 mph - N/A   Mostly Cloudy
2:58 AM 57.4 °F 53.2 °F 86% 30.11 in 10.0 mi Calm Calm - N/A   Partly Cloudy
3:58 AM 58.6 °F 53.4 °F 83% 30.11 in 10.0 mi East 2.3 mph - N/A   Mostly Cloudy
4:58 AM 59.2 °F 52.7 °F 79% 30.11 in 10.0 mi Calm Calm - N/A   Scattered Clouds
5:58 AM 58.1 °F 53.4 °F 84% 30.12 in 10.0 mi NE 2.3 mph - N/A   Mostly Cloudy
6:58 AM 58.8 °F 53.6 °F 83% 30.14 in 10.0 mi NE 2.3 mph - N/A   Overcast
7:58 AM 60.3 °F 54.1 °F 80% 30.14 in 10.0 mi NE 4.6 mph - N/A   Overcast
8:58 AM 63.3 °F 54.3 °F 72% 30.15 in 10.0 mi ENE 6.9 mph - N/A   Overcast
9:58 AM 67.3 °F 54.5 °F 63% 30.15 in 10.0 mi East 6.9 mph - N/A   Overcast
10:58 AM 69.3 °F 54.9 °F 60% 30.15 in 10.0 mi ENE 5.8 mph - N/A   Overcast
11:58 AM 69.8 °F 55.8 °F 61% 30.15 in 10.0 mi ENE 5.8 mph - N/A   Overcast
12:58 PM 70.5 °F 58.3 °F 65% 30.15 in 10.0 mi East 4.6 mph - N/A   Overcast
1:58 PM 71.6 °F 59.0 °F 64% 30.15 in 10.0 mi East 5.8 mph - N/A Rain Light Rain
2:21 PM 71.6 °F 59.0 °F 64% 30.14 in 10.0 mi ENE 5.8 mph - N/A   Overcast
2:24 PM 71.6 °F 59.0 °F 64% 30.14 in 10.0 mi ENE 5.8 mph - N/A Rain Light Rain
2:50 PM 71.6 °F 57.2 °F 60% 30.14 in 10.0 mi NE 5.8 mph - N/A   Mostly Cloudy
2:58 PM 72.0 °F 57.7 °F 61% 30.14 in 10.0 mi NE 4.6 mph - 0.00 in   Mostly Cloudy
3:17 PM 71.6 °F 57.2 °F 60% 30.14 in 10.0 mi ENE 5.8 mph - N/A Rain Light Rain
3:28 PM 73.4 °F 57.2 °F 57% 30.14 in 10.0 mi ENE 4.6 mph - N/A   Mostly Cloudy
3:58 PM 73.0 °F 56.1 °F 55% 30.13 in 10.0 mi Variable 4.6 mph - 0.00 in   Overcast
4:29 PM 73.4 °F 57.2 °F 57% 30.12 in 10.0 mi NNE 2.3 mph - N/A   Light Drizzle
4:51 PM 71.6 °F 57.2 °F 60% 30.12 in 10.0 mi East 2.3 mph - N/A   Mostly Cloudy
4:58 PM 72.3 °F 56.7 °F 58% 30.11 in 10.0 mi East 3.5 mph - 0.00 in   Mostly Cloudy
5:58 PM 74.1 °F 57.4 °F 56% 30.11 in 10.0 mi South 3.5 mph - N/A   Scattered Clouds
6:38 PM 73.4 °F 57.2 °F 57% 30.10 in 10.0 mi Calm Calm - N/A Rain Light Rain
6:51 PM 73.4 °F 59.0 °F 61% 30.10 in 10.0 mi North 1.2 mph - N/A   Partly Cloudy
6:58 PM 73.4 °F 60.8 °F 65% 30.10 in 10.0 mi North 2.3 mph - 0.00 in   Scattered Clouds
7:58 PM 73.2 °F 60.8 °F 65% 30.08 in 10.0 mi East 3.5 mph - N/A   Mostly Cloudy
8:58 PM 68.7 °F 61.7 °F 78% 30.09 in 10.0 mi ENE 3.5 mph - N/A   Clear
9:58 PM 63.7 °F 62.2 °F 95% 30.09 in 10.0 mi Calm Calm - N/A   Clear
10:58 PM 63.3 °F 62.2 °F 96% 30.10 in 10.0 mi East 2.3 mph - N/A   Clear
11:58 PM 61.2 °F 61.2 °F 100% 30.10 in 10.0 mi ENE 1.2 mph - N/A   Clear